This demonstration page uses our WeatherBlox Daily Observations layout. Learn more.

Left ArrowRight Arrow

Hourly Observations for June 25, 2021

Temp ( °F °C ) Dew Point ( °F °C ) Humidity (%) Winds ( mph kmh ) Pressure ( in mb ) Visibility ( mi km ) Precip ( " mm )
12:53 am 00:53 Clear 84 28.9 66 18.9 55 55 SSE 18 30 29.74 1007 10 16 0.00 0.00
1:53 am 01:53 Clear 83 28.3 66 18.9 57 57 SSE 17 28 29.74 1007 10 16 0.00 0.00
2:53 am 02:53 Clear 82 27.8 66 18.9 58 58 SSE 16 26 29.72 1007 10 16 0.00 0.00
3:53 am 03:53 Clear 82 27.8 66 18.9 58 58 SE 16 26 29.71 1006 10 16 0.00 0.00
4:53 am 04:53 Clear 81 27.2 66 18.9 61 61 SE 10 17 29.72 1006 10 16 0.00 0.00
5:53 am 05:53 Clear 80 26.7 66 18.9 62 62 SE 13 20 29.71 1006 10 16 0.00 0.00
6:53 am 06:53 Sunny 78 25.6 66 18.9 67 67 SE 14 22 29.72 1006 10 16 0.00 0.00
7:53 am 07:53 Sunny 79 26.1 67 19.4 67 67 SE 13 20 29.73 1007 9 14 0.00 0.00
8:53 am 08:53 Sunny 81 27.2 68 20 65 65 SSE 18 30 29.74 1007 10 16 0.00 0.00
9:53 am 09:53 Sunny 85 29.4 67 19.4 55 55 SSE 13 20 29.74 1007 10 16 0.00 0.00
10:53 am 10:53 Sunny 89 31.7 66 18.9 47 47 S 7 11 29.73 1007 10 16 0.00 0.00
11:53 am 11:53 Sunny 93 33.9 64 17.8 38 38 S 10 17 29.72 1006 10 16 0.00 0.00
12:53 pm 12:53 Sunny 96 35.6 63 17.2 34 34 WSW 9 15 29.70 1006 10 16 0.00 0.00
1:53 pm 13:53 Sunny 97 36.1 60 15.6 29 29 SW 6 9 29.67 1005 10 16 0.00 0.00
2:53 pm 14:53 Sunny 99 37.2 57 13.9 25 25 WNW 6 9 29.65 1004 10 16 0.00 0.00
3:53 pm 15:53 Sunny 101 38.3 56 13.3 22 22 WNW 8 13 29.62 1003 10 16 0.00 0.00
4:53 pm 16:53 Sunny 104 40 56 13.3 20 20 Calm 29.58 1002 10 16 0.00 0.00
5:53 pm 17:53 Sunny 102 38.9 57 13.9 23 23 S 13 20 29.57 1002 10 16 0.00 0.00
6:53 pm 18:53 Sunny 96 35.6 61 16.1 31 31 SSE 26 43 29.58 1002 9 14 0.00 0.00
7:53 pm 19:53 Sunny 94 34.4 59 15 31 31 SSE 26 43 29.57 1001 10 16 0.00 0.00
8:53 pm 20:53 Sunny 92 33.3 59 15 33 33 SSE 25 41 29.60 1002 10 16 0.00 0.00
9:53 pm 21:53 Clear 87 30.6 65 18.3 48 48 SSE 22 35 29.62 1003 10 16 0.00 0.00
10:53 pm 22:53 Clear 86 30 66 18.9 51 51 SSE 14 22 29.63 1003 10 16 0.00 0.00
11:53 pm 23:53 Clear 86 30 64 17.8 48 48 SSE 18 30 29.63 1003 10 16 0.00 0.00

Powered by AerisWeather